Weather Roundup
Issued by NWS

Home | Current Version | Previous Version | Graphics & Text | Print | Product List | Glossary Off
Versions: 1 2 3 4 5 6 7 8 9 10 11 12 13 14 15 16 17 18 19 20 21 22 23 24 25 26 27 28 29 30 31 32 33 34 35 36 37 38 39 40 41 42 43 44 45 46 47 48 49 50

489
NZUS93 KARX 141110
HRRWXR

CURRENT HOURLY OBSERVATIONS ACROSS
MUCH OF THE UPPER MISSISSIPPI VALLEY
NATIONAL WEATHER SERVICE LA CROSSE WI
500 AM CST THU DEC 14 2017


...SOUTHEAST MINNESOTA...


CITY           SKY/WX    TMP DP  RH WIND       PRES   REMARKS
ROCHESTER      CLOUDY     9   7  92 NW7       29.98R WCI  -2
ROCHESTER/MAYO FAIR      13  12  95 NW3       30.01R
WINONA         CLOUDY    10   9  92 NW3       30.04R
AUSTIN         CLOUDY    10   9  92 CALM      29.98S
ALBERT LEA     PTCLDY    12  10  92 CALM      29.98S
DODGE CENTER   CLOUDY    10   9  92 N5        29.98R WCI   2
PRESTON        CLOUDY    11   9  90 NW5       29.98S WCI   3
OWATONNA       CLOUDY     7   5  92 CALM      30.00R FOG
FARIBAULT      CLOUDY     9   7  92 CALM      30.00S
$$

...ELSEWHERE IN MINNESOTA...


CITY           SKY/WX    TMP DP  RH WIND       PRES   REMARKS
MINNEAPOLIS    CLOUDY    19  15  84 NW6       30.01S WCI  11
INTNL FALLS    LGT SNOW  12   8  84 W3        29.93S FOG
DULUTH         CLOUDY    13  10  88 NW5       29.91F WCI   5
RED WING       FLURRIES  12   9  85 CALM      30.01S
REDWOOD FALLS  CLOUDY    21  14  74 VRB3      30.01R
MANKATO        CLEAR     11   8  88 CALM      30.01S
WORTHINGTON    CLOUDY    21  18  88 N6        29.99R WCI  13
FAIRMONT       CLOUDY    18  14  84 NW5       30.01R WCI  11
$$

...SOUTHWEST WISCONSIN...


CITY           SKY/WX    TMP DP  RH WIND       PRES   REMARKS
LA CROSSE      CLOUDY     5   3  91 N3        30.02R
PRAIRIE DU CHI PTCLDY    12   9  85 CALM      30.03R
BOSCOBEL       PTCLDY    10   6  84 CALM      30.03R
LONE ROCK      PTCLDY     8   6  92 W6        30.01R WCI  -2
PLATTEVILLE    PTCLDY    14  13  94 CALM      29.99R
FORT MC COY    CLOUDY     0  -3  89 CALM      30.01S
CAMP DOUGLAS   CLOUDY     5   1  86 W3        29.98R
MAUSTON-NEW LI CLOUDY    10   7  89 W3        29.98S
VIROQUA        FAIR      11  10  98 NW3       29.97R
WIS DELLS      PTCLDY     8   6  89 CALM      29.98R
$$

...ELSEWHERE IN WISCONSIN...


CITY           SKY/WX    TMP DP  RH WIND       PRES   REMARKS
MILWAUKEE      PTCLDY    14   9  80 NW7       29.96R WCI   4
MADISON        PTCLDY     9   6  88 CALM      29.98R
GREEN BAY      PTCLDY     6   3  87 NW8       29.97R WCI  -7
EAU CLAIRE     CLOUDY     7   3  84 S5        30.00R WCI  -2
BLACK RVR FLS  FAIR      -5 -10  79 CALM      30.00R
MEDFORD        CLOUDY     3   0  85 CALM      29.93R
WAUSAU         CLOUDY     8   5  87 NW5       29.93R WCI   0
WIS RAPIDS     CLOUDY     3  -2  79 CALM      29.98R
MARSHFIELD     CLOUDY     4   1  88 NW8       29.93S WCI  -9
RICE LAKE      FLURRIES  13  12  93 CALM      29.99S
$$

...NORTHEAST IOWA...


CITY           SKY/WX    TMP DP  RH WIND       PRES   REMARKS
WATERLOO       MOCLDY    15  11  83 N6        30.01R WCI   6
DUBUQUE        MOCLDY    18  13  80 NE8       29.98R WCI   8
DECORAH        PTCLDY    12  10  92 NW3       29.98R
MASON CITY     CLOUDY    18  14  84 N7        30.00R WCI   9
CHARLES CITY   CLOUDY    12  12 100 N7        29.99R WCI   2
OELWEIN        CLOUDY    12  12 100 N7        29.99R WCI   2
$$

...ELSEWHERE IN IOWA...


CITY           SKY/WX    TMP DP  RH WIND       PRES   REMARKS
DES MOINES     CLOUDY    26  17  68 N5        30.01S WCI  20
IOWA CITY      PTCLDY    17  12  80 NW3       30.02R
FORT DODGE     NOT AVBL
MARSHALLTOWN   CLOUDY    23  17  78 NW3       29.99R
CEDAR RAPIDS   PTCLDY    16  12  84 N3        29.99R
$$

...NORTHERN ILLINOIS...


CITY           SKY/WX    TMP DP  RH WIND       PRES   REMARKS
CHICAGO-OHARE  MOCLDY    18  10  71 NW12      29.95R WCI   5
CHICAGO-MIDWAY FLURRIES  21  13  71 NW12      29.95R WCI   9
MOLINE         CLOUDY    24  15  68 N6        30.00R WCI  17
ROCKFORD       PTCLDY    14   8  77 N8        30.00R WCI   3
PEORIA         CLEAR     22  15  75 N5        29.99R WCI  16
$$

NOTE: "FAIR" INDICATES FEW OR NO CLOUDS BELOW 12,000 FEET WITH NO
SIGNIFICANT WEATHER AND/OR OBSTRUCTIONS TO VISIBILITY. WIND
SPEEDS ARE IN MILES-PER-HOUR.




USA.gov is the U.S. government's official web portal to all federal, state and local government web resources and services.